sat.trackr.live / text

‹ back to catalog

INTELSAT 35E (IS-35E)

NORAD 42818 · 2017-041A

PAYLOAD ACTIVE UNKNOWN

§ Identity

Operator
Country
ITSO
Launch date
2017-07-05
Launch site
AFETR
Launch vehicle
Mass (kg)
RCS (m²)

Purposes: comms

External: N2YO · Heavens-Above · Gunter

§ Orbital elements

Epoch: 2026-05-25T04:54:50.392224Z

Period
1,436.09 min
Inclination
0.0178°
Eccentricity
0.0002196
Mean motion
1.00272487 rev/d
Perigee alt
35,777.1 km
Apogee alt
35,795.7 km
Semi-major
42,164.5 km
B*
0.0000e+0
RAAN
315.8466°
Arg perigee
105.3322°
Mean anomaly
220.8387°
Rev number
3,258

§ Raw data

INTELSAT 35E (IS-35E)1 42818U 17041A   26145.20474991 -.00000240  00000+0  00000+0 0  99952 42818   0.0178 315.8466 0002196 105.3322 220.8387  1.00272487 32587

JSON: /api/v1/satellites/42818 · /tle

For live sub-satellite position, see the globe view (requires WebGL).

§ Visibility from observer

Set your observer location to see the next 7 days of passes ≥ 10°. The values pass through the URL so the page stays shareable.

No JS? Fill the form by hand. The geolocation button needs JavaScript.